Skip Page Navigation
NASA JPL Caltech
NASA Logo - Jet Propulsion Laboratory + View the NASA Portal
+ Near-Earth Object (NEO) Program
Search JPL
JPL Home Earth Solar System Stars & Galaxies Technology
JPL Solar System Dynamics
BODIES ORBITS EPHEMERIDES TOOLS PHYSICAL DATA DISCOVERY FAQ SITE MAP
JPL Small-Body Database Browser
Search: [ help ]  
23315 Navinbrian (2001 BN8)
Classification: Main-belt Asteroid          SPK-ID: 2023315
Ephemeris | Orbit Diagram | Orbital Elements | Physical Parameters | Discovery Circumstances ]

[ show orbit diagram ]
Orbital Elements at Epoch 2456400.5 (2013-Apr-18.0) TDB
Reference: MPO250439 (heliocentric ecliptic J2000)
 Element Value Uncertainty (1-sigma)   Units 
e 0.0974802 n/a  
a 3.0554207 n/a AU
q 2.7575777 n/a AU
i 8.09980 n/a deg
node 334.58306 n/a deg
peri 175.32354 n/a deg
M 81.22298 n/a deg
tp 2455960.3696000
(2012-Feb-02.86960000)
n/a JED
period 1950.7649681
5.34
n/a
n/a
d
yr
n 0.18454299 n/a deg/d
Q 3.3532637 n/a AU
  Orbit Determination Parameters
   # obs. used (total)      475  
   first obs. used      1993-??-??  
   last obs. used      2012-05-21  
   # oppositions      12  
   planetary ephem.      DE403  
   condition code      0  
   fit RMS      0.55  
   data source      MPC:mpn  
   producer      MPCLINUX  

Additional Information
 T_jup = 3.213 

Ephemeris | Orbit Diagram | Orbital Elements | Physical Parameters | Discovery Circumstances ]

Physical Parameter Table
Parameter Symbol Value Units Sigma Reference Notes
absolute magnitude H 14.1 mag n/a PDS3 (MPO 10273)  

23315 Navinbrian           Discovered 2001 Jan. 19 by the Lincoln Laboratory Near-Earth Asteroid Research Team in Socorro.
Navin Brian Ramakrishna (b. 1989) was awarded second place in the 2007 Intel International Science and Engineering Fair for his cellular and molecular biology team project. He attends the National Junior College, Singapore.
NOTE: some special characters may not display properly (any characters within {} are an attempt to place the proper accent above a character)
Reference: 20070828/MPCPages.arcLast Updated: 2007-08-30

Alternate Designations
 2001 BN8 = 1999 VG216 = 2000 WD163 
Ephemeris | Orbit Diagram | Orbital Elements | Physical Parameters | Discovery Circumstances ]
ABOUT SSD CREDITS/AWARDS PRIVACY/COPYRIGHT GLOSSARY LINKS
FirstGov 2013-May-24 05:56 UT
(server date/time)  
NASA Home Page
Site Manager:   Donald K. Yeomans
Webmaster  Alan B. Chamberlin